| time (UTC) | temp C | wind direction | speed KPH | gust KPH | rain 1hr cm | rain 24hr cm | rain mn cm | humidity % | barometer mb |
| 20260902014534 | 14 | 256 | 1.6 | 4.8 | 0.00 | 0.00 | 0.00 | 76 | 1019.9 |
| 20260902014117 | 14 | 255 | 3.2 | 6.4 | 0.00 | 0.00 | 0.00 | 76 | 1019.9 |
| 20260902014032 | 14 | 255 | 3.2 | 6.4 | 0.00 | 0.00 | 0.00 | 76 | 1019.9 |
| 20260902013530 | 14 | 248 | 3.2 | 9.7 | 0.00 | 0.00 | 0.00 | 76 | 1019.8 |
| 20260902013028 | 14 | 260 | 1.6 | 4.8 | 0.00 | 0.00 | 0.00 | 75 | 1019.9 |
| 20260902012526 | 14 | 276 | 1.6 | 6.4 | 0.00 | 0.00 | 0.00 | 75 | 1019.7 |
| 20260902012115 | 14 | 288 | 1.6 | 6.4 | 0.00 | 0.00 | 0.00 | 75 | 1019.8 |
| 20260902012024 | 14 | 288 | 1.6 | 6.4 | 0.00 | 0.00 | 0.00 | 75 | 1019.8 |
| 20260902011522 | 14 | 259 | 0.0 | 4.8 | 0.00 | 0.00 | 0.00 | 75 | 1019.8 |
| 20260902011021 | 14 | 0.0 | 0.0 | 0.00 | 0.00 | 0.00 | 75 | 1019.7 | |
| 20260902010519 | 14 | 264 | 0.0 | 3.2 | 0.00 | 0.00 | 0.00 | 75 | 1019.7 |
| 20260902010100 | 14 | 275 | 1.6 | 9.7 | 0.00 | 0.00 | 0.00 | 76 | 1019.7 |
| 20260902010017 | 14 | 275 | 1.6 | 9.7 | 0.00 | 0.00 | 0.00 | 76 | 1019.7 |
| 20260902005536 | 14 | 264 | 3.2 | 9.7 | 0.00 | 0.00 | 0.00 | 75 | 1019.7 |
| 20260902005033 | 14 | 270 | 1.6 | 4.8 | 0.00 | 0.00 | 0.00 | 75 | 1019.8 |
| 20260902004531 | 14 | 263 | 1.6 | 9.7 | 0.00 | 0.00 | 0.00 | 75 | 1019.7 |
| 20260902004030 | 14 | 256 | 3.2 | 4.8 | 0.00 | 0.00 | 0.00 | 75 | 1019.8 |
| 20260902003528 | 14 | 254 | 3.2 | 6.4 | 0.00 | 0.00 | 0.00 | 75 | 1019.7 |
| 20260902003025 | 15 | 253 | 0.0 | 3.2 | 0.00 | 0.00 | 0.00 | 75 | 1019.7 |
| 20260902002524 | 15 | 218 | 0.0 | 3.2 | 0.00 | 0.00 | 0.00 | 75 | 1019.7 |
| 20260902002022 | 15 | 233 | 0.0 | 3.2 | 0.00 | 0.00 | 0.00 | 75 | 1019.6 |
| 20260902001520 | 15 | 0.0 | 0.0 | 0.00 | 0.00 | 0.00 | 75 | 1019.6 | |
| 20260902001018 | 15 | 237 | 0.0 | 3.2 | 0.00 | 0.00 | 0.00 | 75 | 1019.7 |
| 20260902000516 | 15 | 262 | 0.0 | 3.2 | 0.00 | 0.00 | 0.00 | 75 | 1019.7 |
| 20260902000034 | 15 | 264 | 0.0 | 3.2 | 0.00 | 0.00 | 0.00 | 75 | 1019.7 |
| 20260901235532 | 15 | 251 | 1.6 | 4.8 | 0.00 | 0.00 | 0.00 | 75 | 1019.7 |
| 20260901235031 | 15 | 245 | 1.6 | 4.8 | 0.00 | 0.00 | 0.00 | 75 | 1019.7 |
| 20260901234529 | 15 | 244 | 1.6 | 3.2 | 0.00 | 0.00 | 0.00 | 75 | 1019.6 |
| 20260901234027 | 15 | 0.0 | 0.0 | 0.00 | 0.00 | 0.00 | 75 | 1019.6 | |
| 20260901233525 | 15 | 0.0 | 0.0 | 0.00 | 0.00 | 0.00 | 75 | 1019.6 | |
| 20260901233023 | 15 | 249 | 1.6 | 4.8 | 0.00 | 0.00 | 0.00 | 75 | 1019.6 |
| 20260901232521 | 15 | 245 | 1.6 | 6.4 | 0.00 | 0.00 | 0.00 | 75 | 1019.6 |
| 20260901232019 | 15 | 241 | 0.0 | 3.2 | 0.00 | 0.00 | 0.00 | 75 | 1019.5 |
| 20260901231517 | 15 | 0.0 | 0.0 | 0.00 | 0.00 | 0.00 | 75 | 1019.6 | |
| 20260901231048 | 15 | 256 | 0.0 | 3.2 | 0.00 | 0.00 | 0.00 | 75 | 1019.4 |
| 20260901231016 | 15 | 256 | 0.0 | 3.2 | 0.00 | 0.00 | 0.00 | 75 | 1019.4 |
| 20260901230534 | 15 | 299 | 1.6 | 9.7 | 0.00 | 0.00 | 0.00 | 75 | 1019.5 |
| 20260901230032 | 15 | 282 | 3.2 | 11.3 | 0.00 | 0.00 | 0.00 | 75 | 1019.5 |
| 20260901225530 | 15 | 287 | 4.8 | 14.5 | 0.00 | 0.00 | 0.00 | 75 | 1019.6 |
| 20260901225028 | 15 | 292 | 4.8 | 9.7 | 0.00 | 0.00 | 0.00 | 75 | 1019.5 |
| 20260901224526 | 15 | 283 | 4.8 | 11.3 | 0.00 | 0.00 | 0.00 | 75 | 1019.4 |
| 20260901224024 | 15 | 277 | 4.8 | 9.7 | 0.00 | 0.00 | 0.00 | 75 | 1019.5 |
| 20260901223522 | 15 | 284 | 3.2 | 9.7 | 0.00 | 0.00 | 0.00 | 75 | 1019.4 |
| 20260901223020 | 15 | 284 | 4.8 | 11.3 | 0.00 | 0.00 | 0.00 | 75 | 1019.5 |
| 20260901222519 | 15 | 284 | 4.8 | 14.5 | 0.00 | 0.00 | 0.00 | 75 | 1019.5 |
| 20260901222017 | 15 | 287 | 3.2 | 9.7 | 0.00 | 0.00 | 0.00 | 74 | 1019.5 |
| 20260901221535 | 15 | 285 | 3.2 | 9.7 | 0.00 | 0.00 | 0.00 | 74 | 1019.5 |
| 20260901221033 | 15 | 288 | 4.8 | 11.3 | 0.00 | 0.00 | 0.00 | 74 | 1019.5 |
| 20260901220531 | 15 | 288 | 3.2 | 9.7 | 0.00 | 0.00 | 0.00 | 74 | 1019.4 |
| 20260901220030 | 15 | 281 | 3.2 | 6.4 | 0.00 | 0.00 | 0.00 | 74 | 1019.4 |
| 20260901215527 | 15 | 279 | 3.2 | 6.4 | 0.00 | 0.00 | 0.00 | 74 | 1019.5 |
| 20260901215025 | 15 | 264 | 1.6 | 4.8 | 0.00 | 0.00 | 0.00 | 74 | 1019.5 |
| 20260901214523 | 15 | 261 | 1.6 | 6.4 | 0.00 | 0.00 | 0.00 | 74 | 1019.6 |
| 20260901214022 | 15 | 258 | 1.6 | 3.2 | 0.00 | 0.00 | 0.00 | 74 | 1019.5 |
| 20260901213520 | 15 | 258 | 1.6 | 6.4 | 0.00 | 0.00 | 0.00 | 74 | 1019.5 |
| 20260901213049 | 15 | 275 | 1.6 | 4.8 | 0.00 | 0.00 | 0.00 | 74 | 1019.4 |
| 20260901213018 | 15 | 275 | 1.6 | 4.8 | 0.00 | 0.00 | 0.00 | 74 | 1019.4 |
| 20260901212516 | 15 | 274 | 1.6 | 4.8 | 0.00 | 0.00 | 0.00 | 74 | 1019.5 |
| 20260901212034 | 15 | 260 | 1.6 | 4.8 | 0.00 | 0.00 | 0.00 | 73 | 1019.5 |
| 20260901211532 | 15 | 0.0 | 0.0 | 0.00 | 0.00 | 0.00 | 73 | 1019.5 | |
| 20260901211030 | 16 | 259 | 0.0 | 1.6 | 0.00 | 0.00 | 0.00 | 73 | 1019.5 |
| 20260901210528 | 16 | 278 | 1.6 | 6.4 | 0.00 | 0.00 | 0.00 | 73 | 1019.5 |
| 20260901210027 | 16 | 0.0 | 0.0 | 0.00 | 0.00 | 0.00 | 72 | 1019.6 | |
| 20260901205525 | 16 | 0.0 | 0.0 | 0.00 | 0.00 | 0.00 | 72 | 1019.5 | |
| 20260901205023 | 16 | 259 | 0.0 | 1.6 | 0.00 | 0.00 | 0.00 | 72 | 1019.5 |
| 20260901204521 | 16 | 252 | 0.0 | 1.6 | 0.00 | 0.00 | 0.00 | 72 | 1019.5 |
| 20260901204019 | 16 | 0.0 | 0.0 | 0.00 | 0.00 | 0.00 | 72 | 1019.5 | |
| 20260901203517 | 16 | 291 | 1.6 | 3.2 | 0.00 | 0.00 | 0.00 | 72 | 1019.4 |
| 20260901203016 | 16 | 284 | 3.2 | 4.8 | 0.00 | 0.00 | 0.00 | 71 | 1019.5 |
| 20260901202534 | 16 | 285 | 3.2 | 4.8 | 0.00 | 0.00 | 0.00 | 71 | 1019.5 |
| 20260901202032 | 16 | 286 | 1.6 | 4.8 | 0.00 | 0.00 | 0.00 | 71 | 1019.5 |
| 20260901201530 | 16 | 287 | 1.6 | 4.8 | 0.00 | 0.00 | 0.00 | 71 | 1019.4 |
| 20260901201028 | 16 | 287 | 1.6 | 4.8 | 0.00 | 0.00 | 0.00 | 70 | 1019.5 |
| 20260901200526 | 17 | 288 | 1.6 | 4.8 | 0.00 | 0.00 | 0.00 | 70 | 1019.4 |
| 20260901200024 | 17 | 293 | 3.2 | 3.2 | 0.00 | 0.00 | 0.00 | 70 | 1019.3 |
| 20260901195523 | 17 | 287 | 3.2 | 4.8 | 0.00 | 0.00 | 0.00 | 70 | 1019.5 |
| 20260901195020 | 17 | 288 | 3.2 | 4.8 | 0.00 | 0.00 | 0.00 | 70 | 1019.5 |
| 20260901194518 | 17 | 290 | 3.2 | 9.7 | 0.00 | 0.00 | 0.00 | 70 | 1019.5 |
| 20260901194048 | 17 | 293 | 3.2 | 4.8 | 0.00 | 0.00 | 0.00 | 70 | 1019.5 |
| 20260901194016 | 17 | 293 | 3.2 | 4.8 | 0.00 | 0.00 | 0.00 | 70 | 1019.5 |
| 20260901193535 | 17 | 261 | 1.6 | 6.4 | 0.00 | 0.00 | 0.00 | 69 | 1019.4 |
| 20260901193033 | 17 | 254 | 1.6 | 4.8 | 0.00 | 0.00 | 0.00 | 69 | 1019.5 |
| 20260901192531 | 17 | 258 | 1.6 | 3.2 | 0.00 | 0.00 | 0.00 | 69 | 1019.6 |
| 20260901192029 | 17 | 250 | 1.6 | 3.2 | 0.00 | 0.00 | 0.00 | 69 | 1019.5 |
| 20260901191527 | 17 | 251 | 1.6 | 3.2 | 0.00 | 0.00 | 0.00 | 69 | 1019.5 |
| 20260901191025 | 17 | 256 | 1.6 | 4.8 | 0.00 | 0.00 | 0.00 | 68 | 1019.4 |
| 20260901190523 | 17 | 256 | 1.6 | 4.8 | 0.00 | 0.00 | 0.00 | 68 | 1019.5 |
| 20260901190022 | 17 | 258 | 1.6 | 4.8 | 0.00 | 0.00 | 0.00 | 68 | 1019.5 |
| 20260901185520 | 17 | 286 | 0.0 | 3.2 | 0.00 | 0.00 | 0.00 | 68 | 1019.5 |
| 20260901185018 | 17 | 288 | 1.6 | 4.8 | 0.00 | 0.00 | 0.00 | 68 | 1019.4 |
| 20260901184516 | 17 | 290 | 3.2 | 4.8 | 0.00 | 0.00 | 0.00 | 68 | 1019.4 |
| 20260901184034 | 17 | 278 | 3.2 | 6.4 | 0.00 | 0.00 | 0.00 | 68 | 1019.3 |
| 20260901183532 | 18 | 290 | 3.2 | 6.4 | 0.00 | 0.00 | 0.00 | 67 | 1019.4 |
| 20260901183031 | 18 | 281 | 3.2 | 9.7 | 0.00 | 0.00 | 0.00 | 67 | 1019.3 |
| 20260901182529 | 18 | 286 | 4.8 | 9.7 | 0.00 | 0.00 | 0.00 | 67 | 1019.4 |
| 20260901182027 | 18 | 279 | 4.8 | 9.7 | 0.00 | 0.00 | 0.00 | 67 | 1019.2 |
| 20260901181525 | 18 | 291 | 4.8 | 9.7 | 0.00 | 0.00 | 0.00 | 67 | 1019.2 |
| 20260901181023 | 18 | 285 | 4.8 | 11.3 | 0.00 | 0.00 | 0.00 | 67 | 1019.2 |
| 20260901180522 | 18 | 280 | 4.8 | 14.5 | 0.00 | 0.00 | 0.00 | 67 | 1019.0 |
| 20260901180020 | 18 | 264 | 4.8 | 9.7 | 0.00 | 0.00 | 0.00 | 67 | 1019.0 |
| 20260901175518 | 18 | 270 | 4.8 | 12.9 | 0.00 | 0.00 | 0.00 | 67 | 1019.0 |
| 20260901175016 | 18 | 272 | 3.2 | 6.4 | 0.00 | 0.00 | 0.00 | 67 | 1019.0 |
| 20260901174534 | 18 | 266 | 3.2 | 6.4 | 0.00 | 0.00 | 0.00 | 67 | 1019.0 |
| 20260901174033 | 18 | 258 | 1.6 | 6.4 | 0.00 | 0.00 | 0.00 | 66 | 1018.8 |
| 20260901173530 | 18 | 277 | 3.2 | 6.4 | 0.00 | 0.00 | 0.00 | 66 | 1018.8 |
| 20260901173029 | 18 | 261 | 1.6 | 6.4 | 0.00 | 0.00 | 0.00 | 66 | 1018.8 |
| 20260901172527 | 18 | 270 | 1.6 | 4.8 | 0.00 | 0.00 | 0.00 | 66 | 1018.8 |
| 20260901172025 | 18 | 0.0 | 0.0 | 0.00 | 0.00 | 0.00 | 66 | 1018.8 | |
| 20260901171523 | 18 | 294 | 0.0 | 4.8 | 0.00 | 0.00 | 0.00 | 66 | 1018.7 |
| 20260901171021 | 18 | 279 | 3.2 | 6.4 | 0.00 | 0.00 | 0.00 | 66 | 1018.6 |
| 20260901170519 | 18 | 287 | 3.2 | 9.7 | 0.00 | 0.00 | 0.00 | 66 | 1018.6 |
| 20260901170049 | 19 | 290 | 3.2 | 9.7 | 0.00 | 0.00 | 0.00 | 66 | 1018.6 |
| 20260901170017 | 19 | 290 | 3.2 | 9.7 | 0.00 | 0.00 | 0.00 | 66 | 1018.6 |
| 20260901165535 | 19 | 286 | 3.2 | 9.7 | 0.00 | 0.00 | 0.00 | 65 | 1018.6 |
| 20260901165034 | 19 | 291 | 4.8 | 11.3 | 0.00 | 0.00 | 0.00 | 65 | 1018.6 |
| 20260901164532 | 19 | 289 | 4.8 | 12.9 | 0.00 | 0.00 | 0.00 | 65 | 1018.6 |
| 20260901164030 | 19 | 285 | 6.4 | 12.9 | 0.00 | 0.00 | 0.00 | 65 | 1018.5 |
| 20260901163528 | 19 | 283 | 3.2 | 9.7 | 0.00 | 0.00 | 0.00 | 65 | 1018.4 |
| 20260901163026 | 19 | 287 | 4.8 | 12.9 | 0.00 | 0.00 | 0.00 | 65 | 1018.4 |
| 20260901162524 | 19 | 274 | 4.8 | 11.3 | 0.00 | 0.00 | 0.00 | 65 | 1018.5 |
| 20260901162022 | 19 | 279 | 4.8 | 12.9 | 0.00 | 0.00 | 0.00 | 65 | 1018.4 |
| 20260901161520 | 19 | 276 | 6.4 | 12.9 | 0.00 | 0.00 | 0.00 | 64 | 1018.5 |
| 20260901161019 | 19 | 281 | 8.0 | 16.1 | 0.00 | 0.00 | 0.00 | 64 | 1018.5 |
| 20260901160516 | 19 | 285 | 8.0 | 17.7 | 0.00 | 0.00 | 0.00 | 64 | 1018.5 |
| 20260901160034 | 19 | 288 | 9.7 | 16.1 | 0.00 | 0.00 | 0.00 | 64 | 1018.4 |
| 20260901155533 | 19 | 274 | 6.4 | 14.5 | 0.00 | 0.00 | 0.00 | 64 | 1018.4 |
| 20260901155031 | 19 | 287 | 11.3 | 24.1 | 0.00 | 0.00 | 0.00 | 64 | 1018.4 |
| 20260901154529 | 19 | 281 | 8.0 | 17.7 | 0.00 | 0.00 | 0.00 | 64 | 1018.3 |
| 20260901154027 | 19 | 289 | 9.7 | 20.9 | 0.00 | 0.00 | 0.00 | 64 | 1018.3 |
| 20260901153525 | 19 | 277 | 8.0 | 16.1 | 0.00 | 0.00 | 0.00 | 64 | 1018.4 |
| 20260901153023 | 19 | 288 | 8.0 | 16.1 | 0.00 | 0.00 | 0.00 | 64 | 1018.3 |
| 20260901152521 | 19 | 291 | 9.7 | 24.1 | 0.00 | 0.00 | 0.00 | 64 | 1018.3 |
| 20260901152020 | 19 | 290 | 9.7 | 30.6 | 0.00 | 0.00 | 0.00 | 63 | 1018.3 |
| 20260901151517 | 19 | 287 | 12.9 | 25.7 | 0.00 | 0.00 | 0.00 | 63 | 1018.2 |
| 20260901151049 | 19 | 287 | 11.3 | 22.5 | 0.00 | 0.00 | 0.00 | 63 | 1018.2 |
| 20260901151015 | 19 | 287 | 11.3 | 22.5 | 0.00 | 0.00 | 0.00 | 63 | 1018.2 |
| 20260901150534 | 19 | 289 | 9.7 | 24.1 | 0.00 | 0.00 | 0.00 | 64 | 1018.2 |
| 20260901150032 | 19 | 279 | 9.7 | 24.1 | 0.00 | 0.00 | 0.00 | 63 | 1018.2 |
| 20260901145530 | 19 | 279 | 11.3 | 25.7 | 0.00 | 0.00 | 0.00 | 63 | 1018.1 |
| 20260901145028 | 19 | 278 | 9.7 | 27.4 | 0.00 | 0.00 | 0.00 | 63 | 1018.2 |
| 20260901144526 | 19 | 286 | 6.4 | 17.7 | 0.00 | 0.00 | 0.00 | 63 | 1018.2 |
| 20260901144025 | 20 | 297 | 9.7 | 20.9 | 0.00 | 0.00 | 0.00 | 63 | 1018.1 |
| 20260901143523 | 20 | 270 | 9.7 | 20.9 | 0.00 | 0.00 | 0.00 | 63 | 1018.2 |
| 20260901143021 | 20 | 276 | 8.0 | 16.1 | 0.00 | 0.00 | 0.00 | 63 | 1018.2 |
| 20260901142519 | 20 | 279 | 8.0 | 16.1 | 0.00 | 0.00 | 0.00 | 63 | 1018.1 |
| 20260901142049 | 20 | 279 | 8.0 | 20.9 | 0.00 | 0.00 | 0.00 | 63 | 1018.1 |
| 20260901142017 | 20 | 279 | 8.0 | 20.9 | 0.00 | 0.00 | 0.00 | 63 | 1018.1 |
| 20260901141535 | 20 | 285 | 9.7 | 20.9 | 0.00 | 0.18 | 0.00 | 63 | 1018.0 |
| 20260901141033 | 20 | 262 | 9.7 | 22.5 | 0.00 | 0.18 | 0.00 | 63 | 1018.1 |
| 20260901140532 | 20 | 271 | 9.7 | 22.5 | 0.00 | 0.18 | 0.00 | 63 | 1018.0 |
| 20260901140029 | 20 | 276 | 8.0 | 17.7 | 0.00 | 0.18 | 0.00 | 63 | 1018.0 |
| 20260901135527 | 20 | 284 | 11.3 | 24.1 | 0.00 | 0.18 | 0.00 | 63 | 1018.0 |
| 20260901135025 | 20 | 280 | 12.9 | 27.4 | 0.00 | 0.20 | 0.00 | 63 | 1018.0 |
| 20260901134523 | 20 | 277 | 8.0 | 17.7 | 0.00 | 0.20 | 0.00 | 63 | 1018.1 |
| 20260901134022 | 20 | 262 | 8.0 | 20.9 | 0.00 | 0.20 | 0.00 | 63 | 1018.0 |
| 20260901133521 | 20 | 273 | 12.9 | 27.4 | 0.00 | 0.20 | 0.00 | 63 | 1018.1 |
| 20260901133019 | 19 | 270 | 11.3 | 25.7 | 0.00 | 0.20 | 0.00 | 63 | 1018.1 |
| 20260901132516 | 19 | 280 | 11.3 | 22.5 | 0.00 | 0.20 | 0.00 | 63 | 1018.1 |
| 20260901132035 | 19 | 291 | 12.9 | 27.4 | 0.00 | 0.20 | 0.00 | 63 | 1018.1 |
| 20260901131533 | 19 | 278 | 9.7 | 22.5 | 0.00 | 0.20 | 0.00 | 63 | 1018.1 |
| 20260901131031 | 20 | 277 | 9.7 | 17.7 | 0.00 | 0.20 | 0.00 | 63 | 1017.9 |
| 20260901130529 | 20 | 277 | 11.3 | 24.1 | 0.00 | 0.20 | 0.00 | 63 | 1017.9 |
| 20260901130027 | 20 | 273 | 11.3 | 22.5 | 0.00 | 0.20 | 0.00 | 63 | 1018.0 |
| 20260901125525 | 20 | 282 | 12.9 | 29.0 | 0.00 | 0.20 | 0.00 | 63 | 1018.0 |
| 20260901125024 | 19 | 265 | 9.7 | 33.8 | 0.00 | 0.20 | 0.00 | 64 | 1018.0 |
| 20260901124521 | 19 | 285 | 14.5 | 27.4 | 0.00 | 0.20 | 0.00 | 63 | 1017.9 |
| 20260901124020 | 19 | 280 | 8.0 | 17.7 | 0.00 | 0.20 | 0.00 | 63 | 1017.9 |
| 20260901123518 | 19 | 278 | 9.7 | 20.9 | 0.00 | 0.20 | 0.00 | 63 | 1017.9 |
| 20260901123052 | 19 | 289 | 12.9 | 29.0 | 0.00 | 0.20 | 0.00 | 62 | 1017.9 |
| 20260901123016 | 19 | 289 | 12.9 | 29.0 | 0.00 | 0.20 | 0.00 | 62 | 1017.9 |
| 20260901122534 | 20 | 278 | 9.7 | 24.1 | 0.00 | 0.20 | 0.00 | 61 | 1017.9 |
| 20260901122032 | 20 | 282 | 11.3 | 20.9 | 0.00 | 0.20 | 0.00 | 61 | 1017.8 |
| 20260901121531 | 20 | 290 | 9.7 | 20.9 | 0.00 | 0.20 | 0.00 | 61 | 1017.7 |
| 20260901121029 | 20 | 291 | 11.3 | 24.1 | 0.00 | 0.20 | 0.00 | 61 | 1017.7 |
| 20260901120527 | 20 | 280 | 9.7 | 25.7 | 0.00 | 0.20 | 0.00 | 61 | 1017.7 |
| 20260901120025 | 20 | 277 | 11.3 | 25.7 | 0.00 | 0.20 | 0.00 | 61 | 1017.7 |
| 20260901115523 | 20 | 284 | 11.3 | 27.4 | 0.00 | 0.20 | 0.00 | 61 | 1017.8 |
| 20260901115022 | 20 | 274 | 11.3 | 22.5 | 0.00 | 0.20 | 0.00 | 61 | 1017.8 |
| 20260901114519 | 20 | 295 | 11.3 | 33.8 | 0.00 | 0.20 | 0.00 | 61 | 1017.8 |
| 20260901114049 | 20 | 277 | 9.7 | 35.4 | 0.00 | 0.20 | 0.00 | 61 | 1017.7 |
| 20260901114017 | 20 | 277 | 9.7 | 35.4 | 0.00 | 0.20 | 0.00 | 61 | 1017.7 |
| 20260901113515 | 20 | 276 | 8.0 | 20.9 | 0.00 | 0.20 | 0.00 | 61 | 1017.7 |
| 20260901113034 | 20 | 278 | 9.7 | 27.4 | 0.00 | 0.20 | 0.00 | 60 | 1017.6 |
| 20260901112532 | 20 | 279 | 17.7 | 35.4 | 0.00 | 0.20 | 0.00 | 59 | 1017.7 |
| 20260901112030 | 20 | 274 | 9.7 | 20.9 | 0.00 | 0.20 | 0.00 | 61 | 1017.7 |
| 20260901111528 | 20 | 285 | 9.7 | 22.5 | 0.00 | 0.20 | 0.00 | 61 | 1017.7 |
| 20260901111027 | 20 | 273 | 11.3 | 22.5 | 0.00 | 0.20 | 0.00 | 60 | 1017.7 |
| 20260901110525 | 20 | 287 | 12.9 | 24.1 | 0.00 | 0.20 | 0.00 | 59 | 1017.6 |
| 20260901110023 | 20 | 292 | 9.7 | 24.1 | 0.00 | 0.20 | 0.00 | 60 | 1017.6 |
| 20260901105521 | 20 | 281 | 11.3 | 22.5 | 0.00 | 0.20 | 0.00 | 60 | 1017.6 |
| 20260901105019 | 20 | 276 | 11.3 | 29.0 | 0.00 | 0.20 | 0.00 | 59 | 1017.5 |
| 20260901104517 | 20 | 265 | 11.3 | 22.5 | 0.00 | 0.20 | 0.00 | 60 | 1017.5 |
| 20260901104036 | 20 | 281 | 8.0 | 24.1 | 0.00 | 0.20 | 0.00 | 60 | 1017.5 |
| 20260901103534 | 20 | 277 | 11.3 | 22.5 | 0.00 | 0.20 | 0.00 | 60 | 1017.5 |
| 20260901103032 | 20 | 276 | 14.5 | 30.6 | 0.00 | 0.20 | 0.00 | 59 | 1017.5 |
| 20260901102530 | 21 | 281 | 14.5 | 33.8 | 0.00 | 0.20 | 0.00 | 58 | 1017.4 |
| 20260901102028 | 21 | 279 | 12.9 | 29.0 | 0.00 | 0.20 | 0.00 | 58 | 1017.3 |
| 20260901101526 | 21 | 280 | 14.5 | 30.6 | 0.00 | 0.20 | 0.00 | 58 | 1017.3 |
| 20260901101024 | 21 | 282 | 12.9 | 37.0 | 0.00 | 0.20 | 0.00 | 57 | 1017.2 |
| 20260901100522 | 21 | 273 | 16.1 | 30.6 | 0.00 | 0.20 | 0.00 | 58 | 1017.3 |
| 20260901100021 | 21 | 274 | 12.9 | 29.0 | 0.00 | 0.20 | 0.00 | 58 | 1017.3 |
| 20260901095518 | 21 | 307 | 14.5 | 29.0 | 0.00 | 0.20 | 0.00 | 58 | 1017.2 |
| 20260901095048 | 21 | 279 | 11.3 | 22.5 | 0.00 | 0.20 | 0.00 | 60 | 1017.2 |
| 20260901095017 | 21 | 279 | 11.3 | 22.5 | 0.00 | 0.20 | 0.00 | 60 | 1017.2 |
| 20260901094536 | 21 | 275 | 9.7 | 22.5 | 0.00 | 0.20 | 0.00 | 60 | 1017.1 |
| 20260901094033 | 21 | 267 | 11.3 | 24.1 | 0.00 | 0.20 | 0.00 | 60 | 1017.2 |
| 20260901093531 | 20 | 278 | 11.3 | 25.7 | 0.00 | 0.20 | 0.00 | 60 | 1017.1 |
| 20260901093030 | 20 | 282 | 12.9 | 27.4 | 0.00 | 0.20 | 0.00 | 59 | 1017.1 |
| 20260901092528 | 20 | 289 | 14.5 | 33.8 | 0.00 | 0.20 | 0.00 | 59 | 1017.1 |
| 20260901092026 | 20 | 273 | 14.5 | 37.0 | 0.00 | 0.20 | 0.00 | 59 | 1017.1 |
| 20260901091524 | 20 | 281 | 16.1 | 33.8 | 0.00 | 0.20 | 0.00 | 60 | 1017.0 |
| 20260901091022 | 20 | 287 | 16.1 | 33.8 | 0.00 | 0.20 | 0.00 | 62 | 1016.9 |
| 20260901090520 | 20 | 283 | 9.7 | 20.9 | 0.00 | 0.20 | 0.00 | 63 | 1016.8 |
| 20260901090049 | 20 | 283 | 11.3 | 24.1 | 0.00 | 0.20 | 0.00 | 64 | 1016.9 |
| 20260901090018 | 20 | 283 | 11.3 | 24.1 | 0.00 | 0.20 | 0.00 | 64 | 1016.9 |
| 20260901085535 | 20 | 269 | 12.9 | 33.8 | 0.00 | 0.20 | 0.00 | 65 | 1016.8 |
| 20260901085033 | 20 | 280 | 9.7 | 29.0 | 0.00 | 0.20 | 0.00 | 64 | 1016.8 |
| 20260901084531 | 20 | 276 | 12.9 | 25.7 | 0.00 | 0.20 | 0.00 | 65 | 1016.9 |
| 20260901084030 | 20 | 280 | 12.9 | 25.7 | 0.00 | 0.20 | 0.00 | 66 | 1016.8 |
| 20260901083528 | 20 | 289 | 12.9 | 25.7 | 0.00 | 0.20 | 0.00 | 66 | 1016.8 |
| 20260901083026 | 20 | 276 | 16.1 | 27.4 | 0.00 | 0.20 | 0.00 | 66 | 1016.8 |
| 20260901082524 | 20 | 290 | 11.3 | 24.1 | 0.00 | 0.20 | 0.00 | 68 | 1016.7 |
| 20260901082022 | 19 | 272 | 8.0 | 16.1 | 0.00 | 0.20 | 0.00 | 68 | 1016.7 |
| 20260901081520 | 19 | 293 | 11.3 | 25.7 | 0.00 | 0.20 | 0.00 | 66 | 1016.7 |
| 20260901081019 | 19 | 289 | 9.7 | 25.7 | 0.00 | 0.20 | 0.00 | 68 | 1016.6 |
| 20260901080516 | 19 | 291 | 8.0 | 17.7 | 0.00 | 0.20 | 0.00 | 68 | 1016.5 |
| 20260901080035 | 19 | 290 | 9.7 | 17.7 | 0.00 | 0.20 | 0.00 | 68 | 1016.6 |
| 20260901075533 | 19 | 284 | 8.0 | 17.7 | 0.00 | 0.20 | 0.00 | 68 | 1016.7 |
| 20260901075031 | 19 | 294 | 8.0 | 17.7 | 0.00 | 0.20 | 0.00 | 68 | 1016.7 |
| 20260901074529 | 19 | 287 | 9.7 | 20.9 | 0.00 | 0.20 | 0.00 | 68 | 1016.6 |
| 20260901074027 | 19 | 290 | 9.7 | 17.7 | 0.00 | 0.20 | 0.00 | 69 | 1016.6 |
| 20260901073525 | 18 | 291 | 8.0 | 20.9 | 0.00 | 0.20 | 0.00 | 69 | 1016.6 |
| 20260901073023 | 18 | 306 | 9.7 | 20.9 | 0.00 | 0.20 | 0.00 | 69 | 1016.5 |
| 20260901072522 | 18 | 281 | 8.0 | 16.1 | 0.00 | 0.20 | 0.00 | 69 | 1016.5 |
| 20260901072020 | 18 | 292 | 12.9 | 25.7 | 0.00 | 0.20 | 0.00 | 69 | 1016.4 |
| 20260901071518 | 18 | 282 | 8.0 | 16.1 | 0.00 | 0.20 | 0.00 | 71 | 1016.4 |
| 20260901071016 | 18 | 279 | 9.7 | 24.1 | 0.00 | 0.20 | 0.00 | 70 | 1016.3 |
| 20260901070534 | 18 | 291 | 12.9 | 27.4 | 0.00 | 0.20 | 0.00 | 70 | 1016.3 |
| 20260901070032 | 18 | 276 | 12.9 | 25.7 | 0.00 | 0.20 | 0.00 | 71 | 1016.4 |
| 20260901065544 | 18 | 287 | 12.9 | 29.0 | 0.00 | 0.20 | 0.00 | 71 | 1016.4 |
| 20260901065029 | 18 | 288 | 11.3 | 25.7 | 0.00 | 0.20 | 0.00 | 73 | 1016.2 |
| 20260901064527 | 18 | 283 | 11.3 | 20.9 | 0.00 | 0.20 | 0.00 | 73 | 1016.2 |
| 20260901064025 | 17 | 279 | 8.0 | 17.7 | 0.00 | 0.20 | 0.00 | 73 | 1016.2 |
| 20260901063523 | 17 | 287 | 11.3 | 24.1 | 0.00 | 0.20 | 0.00 | 73 | 1016.2 |
| 20260901063021 | 17 | 298 | 8.0 | 14.5 | 0.00 | 0.20 | 0.00 | 74 | 1016.2 |
| 20260901062519 | 17 | 282 | 8.0 | 20.9 | 0.00 | 0.20 | 0.00 | 75 | 1016.2 |
| 20260901062017 | 17 | 285 | 9.7 | 24.1 | 0.00 | 0.20 | 0.00 | 75 | 1016.2 |
| 20260901061516 | 17 | 289 | 8.0 | 17.7 | 0.00 | 0.20 | 0.00 | 76 | 1016.1 |
| 20260901061034 | 17 | 290 | 8.0 | 17.7 | 0.00 | 0.20 | 0.00 | 76 | 1016.0 |
| 20260901060532 | 17 | 284 | 8.0 | 20.9 | 0.00 | 0.20 | 0.00 | 77 | 1016.0 |
| 20260901060030 | 17 | 283 | 8.0 | 16.1 | 0.00 | 0.20 | 0.00 | 77 | 1016.0 |
| 20260901055528 | 17 | 279 | 8.0 | 17.7 | 0.00 | 0.20 | 0.00 | 77 | 1016.0 |
| 20260901055026 | 17 | 280 | 8.0 | 16.1 | 0.00 | 0.20 | 0.00 | 77 | 1015.9 |
| 20260901054524 | 17 | 287 | 8.0 | 20.9 | 0.00 | 0.20 | 0.00 | 77 | 1015.8 |
| 20260901054023 | 17 | 285 | 9.7 | 17.7 | 0.00 | 0.20 | 0.00 | 78 | 1015.9 |
| 20260901053521 | 17 | 281 | 11.3 | 35.4 | 0.00 | 0.20 | 0.00 | 79 | 1015.9 |
| 20260901053052 | 16 | 282 | 8.0 | 16.1 | 0.00 | 0.20 | 0.00 | 80 | 1015.8 |
| 20260901053019 | 16 | 282 | 8.0 | 16.1 | 0.00 | 0.20 | 0.00 | 80 | 1015.8 |
| 20260901052517 | 16 | 279 | 8.0 | 17.7 | 0.00 | 0.20 | 0.00 | 80 | 1015.8 |
| 20260901052035 | 16 | 280 | 8.0 | 17.7 | 0.00 | 0.20 | 0.00 | 80 | 1015.8 |
| 20260901051533 | 16 | 294 | 8.0 | 16.1 | 0.00 | 0.20 | 0.00 | 80 | 1015.7 |
| 20260901051032 | 16 | 274 | 6.4 | 12.9 | 0.00 | 0.20 | 0.00 | 80 | 1015.7 |
| 20260901050530 | 16 | 292 | 4.8 | 11.3 | 0.00 | 0.20 | 0.00 | 80 | 1015.6 |
| 20260901050028 | 16 | 295 | 6.4 | 12.9 | 0.00 | 0.20 | 0.00 | 80 | 1015.6 |
| 20260901045525 | 16 | 290 | 6.4 | 12.9 | 0.00 | 0.20 | 0.00 | 80 | 1015.5 |
| 20260901045024 | 16 | 288 | 6.4 | 12.9 | 0.00 | 0.20 | 0.00 | 80 | 1015.5 |
| 20260901044522 | 16 | 286 | 6.4 | 11.3 | 0.00 | 0.20 | 0.00 | 80 | 1015.4 |
| 20260901044020 | 16 | 279 | 6.4 | 12.9 | 0.00 | 0.20 | 0.00 | 80 | 1015.4 |
| 20260901043518 | 16 | 271 | 6.4 | 11.3 | 0.00 | 0.20 | 0.00 | 80 | 1015.3 |
| 20260901043047 | 16 | 284 | 8.0 | 17.7 | 0.00 | 0.20 | 0.00 | 80 | 1015.3 |
| 20260901043016 | 16 | 284 | 8.0 | 17.7 | 0.00 | 0.20 | 0.00 | 80 | 1015.3 |
| 20260901042534 | 16 | 285 | 9.7 | 17.7 | 0.00 | 0.20 | 0.00 | 80 | 1015.2 |
| 20260901042033 | 16 | 282 | 6.4 | 12.9 | 0.00 | 0.20 | 0.00 | 80 | 1015.0 |
| 20260901041531 | 16 | 289 | 6.4 | 16.1 | 0.00 | 0.20 | 0.00 | 80 | 1015.0 |
| 20260901041029 | 16 | 288 | 6.4 | 12.9 | 0.00 | 0.20 | 0.00 | 80 | 1014.9 |
| 20260901040527 | 16 | 287 | 8.0 | 16.1 | 0.00 | 0.20 | 0.00 | 80 | 1014.8 |
| 20260901040025 | 16 | 293 | 8.0 | 14.5 | 0.00 | 0.20 | 0.00 | 80 | 1014.8 |
| 20260901035523 | 16 | 276 | 8.0 | 17.7 | 0.00 | 0.20 | 0.00 | 80 | 1014.8 |
| 20260901035021 | 16 | 290 | 8.0 | 17.7 | 0.00 | 0.20 | 0.00 | 81 | 1014.9 |
| 20260901034519 | 16 | 280 | 8.0 | 16.1 | 0.00 | 0.20 | 0.00 | 81 | 1014.9 |
| 20260901034048 | 16 | 283 | 6.4 | 12.9 | 0.00 | 0.20 | 0.00 | 81 | 1014.8 |
| 20260901034017 | 16 | 283 | 6.4 | 12.9 | 0.00 | 0.20 | 0.00 | 81 | 1014.8 |
| 20260901033535 | 16 | 282 | 6.4 | 14.5 | 0.00 | 0.20 | 0.00 | 81 | 1014.8 |
| 20260901033033 | 16 | 286 | 4.8 | 9.7 | 0.00 | 0.20 | 0.00 | 81 | 1014.9 |
| 20260901032531 | 16 | 284 | 6.4 | 14.5 | 0.00 | 0.20 | 0.00 | 82 | 1014.9 |
| 20260901032030 | 16 | 292 | 8.0 | 14.5 | 0.00 | 0.20 | 0.00 | 82 | 1014.9 |
| 20260901031527 | 16 | 285 | 8.0 | 20.9 | 0.00 | 0.20 | 0.00 | 83 | 1014.9 |
| 20260901031026 | 16 | 286 | 6.4 | 17.7 | 0.00 | 0.20 | 0.00 | 83 | 1014.9 |
| 20260901030524 | 16 | 277 | 3.2 | 9.7 | 0.00 | 0.20 | 0.00 | 84 | 1014.9 |
| 20260901030022 | 16 | 282 | 4.8 | 12.9 | 0.00 | 0.20 | 0.00 | 84 | 1015.0 |
| 20260901025520 | 16 | 282 | 3.2 | 6.4 | 0.00 | 0.20 | 0.00 | 84 | 1014.8 |
| 20260901025050 | 16 | 268 | 3.2 | 6.4 | 0.00 | 0.20 | 0.00 | 84 | 1014.9 |
| 20260901025018 | 16 | 268 | 3.2 | 6.4 | 0.00 | 0.20 | 0.00 | 84 | 1014.9 |
| 20260901024516 | 16 | 273 | 3.2 | 6.4 | 0.00 | 0.20 | 0.00 | 84 | 1014.9 |
| 20260901024035 | 16 | 263 | 1.6 | 6.4 | 0.00 | 0.20 | 0.00 | 84 | 1014.9 |
| 20260901023533 | 16 | 241 | 1.6 | 4.8 | 0.00 | 0.20 | 0.00 | 84 | 1015.0 |
| 20260901023031 | 16 | 251 | 1.6 | 11.3 | 0.00 | 0.20 | 0.00 | 84 | 1014.9 |
| 20260901022529 | 16 | 255 | 1.6 | 9.7 | 0.00 | 0.20 | 0.00 | 84 | 1014.9 |
| 20260901022027 | 16 | 261 | 0.0 | 4.8 | 0.00 | 0.20 | 0.00 | 84 | 1014.7 |
| 20260901021525 | 16 | 260 | 1.6 | 4.8 | 0.00 | 0.20 | 0.00 | 84 | 1014.7 |
| 20260901021023 | 16 | 0.0 | 0.0 | 0.00 | 0.20 | 0.00 | 84 | 1014.7 | |
| 20260901020521 | 16 | 264 | 0.0 | 3.2 | 0.00 | 0.20 | 0.00 | 84 | 1014.7 |
| 20260901020019 | 16 | 261 | 0.0 | 4.8 | 0.00 | 0.20 | 0.00 | 84 | 1014.7 |
| 20260901015517 | 16 | 0.0 | 0.0 | 0.00 | 0.20 | 0.00 | 84 | 1014.7 | |
| 20260901015047 | 16 | 0.0 | 0.0 | 0.00 | 0.20 | 0.00 | 84 | 1014.7 |